Location: Skalnate Pleso
(49.1889°N, 20.2450°E)
Time: 23:21:20
(UTC+02:00)

Cosmos 1605 Rocket - Pass Details

Date: 21 February 2020
Orbit: 944 x 1007 km, 82.9° (Epoch: 05 April)

Event Time Altitude Azimuth Distance (km) Brightness Sun altitude
Rises 05:00:07 0° 342° (NNW) 3,690 6.9 -16.7°
Reaches altitude 10° 05:03:03 10° 330° (NNW) 2,727 6.1 -16.2°
Maximum altitude 05:08:00 26° 277° (W) 1,812 4.8 -15.4°
Drops below altitude 10° 05:12:54 10° 224° (SW) 2,680 5.9 -14.6°
Sets 05:15:46 0° 212° (SSW) 3,613 6.7 -14.2°
